1st Responders/1st Detectors/Storm Spotters Weather Summary for Lewis County, KY

Forecast Maps


Reg. NEXRAD Animation


National Fire Danger: Day 1 & 2 Map

Current NWS Watch/Warnings

SPC Convective Day 1 Outlook


Day 2 Outlook

(Click images to enlarge|Page will refresh every 5 minutes)
UK Ag. Weather Center Desktop Severe Weather Service[HERE]
Lewis County, KY Hazardous Weather Outlook Webcast
(9 AM to 9 PM Mon-Fri)
[Fast]
[Dial-up]


UKAWC 1st Detectors/1st Responders Precision Weather Forecast For LEWIS County, Kentucky
(based on the NWS County Digital Forecast)

ISSUED AT 09:00 UTC ON TUESDAY JUN 18 2019
DAY TUESDAY
EDT 3HR 6A 7A 8A 9A 10A 11A NOON 1P 2P 3P 4P 5P 6P 7P
MAX/MIN -- -- 67° -- -- -- -- -- -- -- -- -- -- 76°
TEMP 67° 67° 68° 70° 70° 72° 72° 72° 74° 74° 74° 74° 74° 72°
SKY COVER 95% 97% 97% 97% 98% 97% 97% 97% 97% 95% 94% 93% 89% 82%
Clouds
DEW PT 65° 65° 67° 67° 67° 67° 67° 67° 67° 67° 68° 68° 68° 68°
RH 92% 93% 93% 93% 90% 87% 84% 84% 81% 81% 82% 82% 81% 86%
POP 12HR -- -- 98% -- -- -- -- -- -- -- -- -- -- --
RAIN/SNOW (liq.equ) -- -- 0.11in -- -- -- -- -- 0.21in -- -- -- -- --
SNOWFALL -- -- 0in -- -- -- -- -- 0in -- -- -- -- --
WIND SPEED(MPH) 7 7 7 7 7 7 7 7 8 8 7 7 7 7
WIND Gust(MPH) 7 7 7 7 7 7 7 7 9 9 7 7 7 7
WIND DIR SW SW SW SW SW SW SW SW SW S S S S S
DEW -- -- -- -- -- -- -- -- -- -- -- -- Lgt Dew Mod Dew
HeatIndex 67 67 68 70 70 72 72 72 74 74 74 74 74 72
Rain Showers Chance Chance Likely Likely Chance Chance Chance Chance Chance Chance Chance -- -- --
Thunder Storm Chance Chance Slight Chance Slight Chance Slight Chance Slight Chance Slight Chance Slight Chance Chance Chance Chance -- -- --
WIND CHILL -- -- -- -- -- -- -- -- -- -- -- -- -- --
SPRAY COND
DRY COND
LIVESTOCK HEATSTRESS 66.64 66.68 67.65 69.57 69.38 71.06 70.84 70.84 72.41 72.41 72.50 72.50 72.41 70.98



DAY WEDNESDAY THURSDAY FRIDAY SATURDAY SUNDAY MONDAY
EDT 6HR 8P 9P 10P 11P MIDN 1A 2A 3A 4A 5A 6A 7A 8A 9A 10A 11A NOON 1P 2P 3P 4P 5P 8P 11P 2A 5A 8A 11A 2P 5P 8P 2A 8A 2P 8P 2A 8A 2P 8P 2A 8A 2P 8P 2A 8A 2P 8P
MAX/MIN -- -- -- -- -- -- -- -- -- -- -- -- 65° -- -- -- -- -- -- -- -- 81° -- -- -- -- 67° -- -- 76° -- -- 61° 79° -- -- 63° 83° -- -- 68° 88° -- -- 70° 85° --
TEMP 72° 72° 70° 68° 67° 67° 67° 65° 65° 65° 65° 65° 67° 70° 72° 74° 76° 79° 79° 81° 81° 81° 76° 70° 68° 67° 67° 72° 76° 76° 72° 63° 63° 77° 76° 65° 67° 83° 79° 70° 70° 86° 81° 72° 72° 85° 76°
SKY COVER 77% 72% 72% 71% 75% 79% 83% 83% 83% 83% 83% 83% 83% 82% 81% 79% 75% 71% 66% 63% 59% 56% 68% 83% 81% 92% 88% 90% 87% 90% 82% 62% 56% 43% 31% 48% 60% 69% 67% 72% 73% 68% 67% 63% 72% 69% 73%
Clouds
DEW PT 68° 67° 67° 67° 67° 67° 67° 65° 65° 65° 65° 65° 67° 67° 67° 68° 68° 68° 68° 68° 68° 68° 68° 67° 67° 67° 67° 67° 68° 67° 65° 63° 63° 63° 65° 63° 63° 70° 70° 68° 68° 70° 70° 68° 67° 70° 68°
RH 87% 84% 90% 96% 96% 96% 99% 99% 100% 99% 100% 100% 100% 93% 84% 81% 76% 71% 69% 67% 66% 67% 76% 93% 93% 96% 96% 84% 79% 74% 78% 96% 96% 59% 69% 93% 89% 64% 74% 93% 93% 59% 68% 87% 87% 60% 76%
POP 12HR 58% -- -- -- -- -- -- -- -- -- -- -- 60% -- -- -- -- -- -- -- -- -- 57% -- -- -- 91% -- -- -- 83% -- 32% -- 12% -- 38% -- 49% -- 45% -- 45% -- 42% -- 48%
RAIN/SNOW (liq.equ) 0.11in -- -- -- -- -- 0.10in -- -- -- -- -- 0.02in -- -- -- -- -- 0.04in -- -- -- 0.07in -- 0.26in -- 0.29in -- 0.17in -- 0.19in -- -- -- -- -- -- -- -- -- -- -- -- -- -- -- --
SNOWFALL 0in -- -- -- -- -- 0in -- -- -- -- -- 0in -- -- -- -- -- 0in -- -- -- 0in -- 0in -- 0in -- 0in -- 0in -- -- -- -- -- -- -- -- -- -- -- -- -- -- -- --
WIND SPEED(MPH) 7 2 2 1 1 1 1 1 1 2 2 2 2 2 5 5 5 5 5 5 6 6 2 5 5 7 7 13 13 13 7 5 2 5 0 1 2 9 8 5 6 7 5 5 6 10 8
WIND DIR S S S S SW SW SW SW SW SW SW SW SW SW SW SW SW SW SW SW SW SW SW SW SW SW SW SW SW W W W W W NW SE S SW SW SW SW SW SW SW SW SW SW
HeatIndex 72 72 70 68 67 67 67 65 65 65 65 65 67 70 72 74 76 79 82 84 84 84 76 70 68 67 67 72 76 76 72 63 63 77 76 65 67 87 79 70 70 92 86 72 72 89 76
Rain Showers Chance Likely Likely Chance Chance Chance Chance Chance Chance Chance Chance Chance Chance Chance Chance Chance Chance Chance Chance Chance Chance Chance Likely Likely Likely Definite Definite Definite Definite Definite Chance -- -- -- -- -- Chance Chance Chance Chance Chance Chance Chance Chance Chance Chance Chance
Thunder Storm -- Slight Chance Slight Chance Slight Chance Slight Chance Slight Chance Slight Chance Slight Chance Slight Chance Slight Chance Slight Chance Slight Chance Chance Chance Chance Chance Chance Chance Chance Chance Chance Chance Likely Likely Likely Definite Definite Definite Definite Definite Chance -- -- -- -- -- Chance Chance Chance Chance Chance Chance Chance Chance Chance Chance Chance
WIND CHILL -- -- -- -- -- -- -- -- -- -- -- -- -- -- -- -- -- -- -- -- -- -- -- -- -- -- -- -- -- -- -- -- -- -- -- -- -- -- -- -- -- -- -- -- -- -- --
SPRAY COND
DRY COND
LIVESTOCK HEATSTRESS 71.06 70.84 69.38 67.80 66.82 66.82 66.95 64.97 65.00 64.97 65.00 65.00 67.00 69.57 70.84 72.41 73.73 75.78 75.56 76.97 76.85 76.97 73.73 69.57 67.65 66.82 66.82 70.84 74.01 73.54 70.40 62.91 62.91 72.90 73.07 64.76 66.50 78.21 76.11 69.57 69.57 79.87 77.09 71.06 71.06 79.24 73.73

Click on individual weather variable above in left-hand column (ie., TEMP, RH, QPF 12HR) to view state forecast maps






NWS 48 Hr. Forecast Maps,

Regional Hourly Observations For LEWIS County, Kentucky
Issued at 500 AM EDT TUE JUN 18 2019
NORTHEAST KENTUCKY
  
CITY           SKY/WX    TMP DP  RH WIND       PRES   REMARKS
LEXINGTON      MOCLDY    67  64  90 S6        29.97S                  
COVINGTON      LGT RAIN  68  66  93 S8        29.95S                  
FRANKFORT      CLOUDY    70  66  87 CALM      29.95S                  


Current NOWCAST not available:
Nowcasts are not issued routinely during fair weather. Only when
precipitation or other significant weather is occuring in this county will these
forecasts be issued. Currently, there is no short term forecast in effect.


Fire Weather Forecast For LEWIS County, KY
Provided by the National Weather Service:

Issued at: Tue Jun 18 05:05:01 EDT 2019

CLOUD COVER                    Cloudy        MCldy        MCldy
PRECIP TYPE                     Tstms        Tstms        Tstms
CHANCE PRECIP (%)                  80           50           70
TEMP (24H TREND)              75 (-7)      65 (-2)           80
RH % (24H TREND)              78 (+9)      100 (0)           68
20FTWND-AM(MPH)               Lgt/Var                   Lgt/Var
20FTWND-PM(MPH)               Lgt/Var      Lgt/Var      Lgt/Var
PRECIP AMOUNT                    0.26         0.20         0.14
PRECIP DURATION                     6            2            5
MIXING HGT(FT-AGL)               5090                          
TRANSPORT WND (MPH)             SW  8                       N/A
LAL                                 3            3          N/A
HAINES INDEX                        3            3             

REMARKS...None.

.FORECAST FOR DAYS 3 THROUGH 7...
.WEDNESDAY NIGHT...Showers and thunderstorms. Lows in the upper 60s.
Southwest winds 5 to 10 mph. 
.THURSDAY...Showers and thunderstorms. Highs in the upper 70s. Southwest
winds 10 to 15 mph. 
.FRIDAY...Mostly cloudy. A chance of showers and thunderstorms. Lows in
the lower 60s. Highs in the upper 70s. Northwest winds 5 to 10 mph. 
.SATURDAY...Mostly cloudy. A chance of showers and thunderstorms. Lows in
the mid 60s. Highs in the lower 80s. South winds around 5 mph. 
.SUNDAY...Mostly cloudy with a chance of showers and thunderstorms. Lows
in the upper 60s. Highs in the mid 80s. Southwest winds 5 to 10 mph. 
.MONDAY...Mostly cloudy. A chance of showers and thunderstorms. Lows
around 70. Highs in the lower 80s. Southwest winds 5 to 10 mph. 

SPC's Fire Weather Web Tool (Excellent!), SPC's Fire Weather Outlooks, NWS Fire Weather WEB, Fire Danger Class Map,
Keetch-Byram Drought Index, ROMAN Web, Haines Index ,
WFAS's 10-hr Dead Fuel Moist., WFAS's 100-hr Dead Fuel Moist., Probablity of Ignition, Visual blackness Map, Palmer Drought Index, HPC's Rainfall Forecast Maps


Hazardous Weather Outlook For LEWIS County, Kentucky
412 AM EDT Tue Jun 18 2019

   FLASH FLOOD WATCH IN EFFECT THROUGH THIS EVENING  

This Hazardous Weather Outlook is for Southeast Indiana, Northeast 
Kentucky, Northern Kentucky, Central Ohio, South Central Ohio, 
Southwest Ohio and West Central Ohio.

 DAY ONE  Today and tonight.

Please listen to NOAA Weather Radio or go to weather.gov on the
Internet for more information about the following hazards.

   Flash Flood Watch.

Showers and thunderstorms are expected again at times today, and any
slow moving storm will be capable of very heavy rain rates and 
localized flash flooding. 

 DAYS TWO THROUGH SEVEN  Wednesday through Monday.

Additional rounds of showers and storms will be possible again
Wednesday afternoon into Thursday, with locally heavy rainfall again
possible both of these days. Some strong to severe storms are also
possible on Wednesday afternoon and night. 

 SPOTTER INFORMATION STATEMENT  

Spotter activation is not expected at this time.

Latest LEWIS County, Kentucky Watches, Warnings and Advisories.
Additional Drought Info.: UKAWC Drought Page, Kentucky Drought Watch


7-Day Forecast For LEWIS County, KY


FLASH FLOOD WATCH IN EFFECT THROUGH THIS EVENING

TODAY
Cloudy. Showers and thunderstorms, mainly this morning. Some thunderstorms may produce heavy rainfall. Highs in the mid 70s. Southwest winds 5 to 10 mph. Chance of rain 80 percent.

TONIGHT
Mostly cloudy. A chance of showers and thunderstorms. Some thunderstorms may produce heavy rainfall in the evening. Muggy. Lows in the mid 60s. Southwest winds around 5 mph. Chance of rain 50 percent.

WEDNESDAY
Mostly cloudy. A chance of showers and thunderstorms in the morning, then showers and thunderstorms likely in the afternoon. Humid with highs around 80. Southwest winds 5 to 10 mph. Chance of rain 70 percent.

WEDNESDAY NIGHT
Showers and thunderstorms. Muggy. Lows in the upper 60s. Southwest winds 5 to 10 mph. Chance of rain 80 percent.

THURSDAY
Showers and thunderstorms. Humid with highs in the upper 70s. Southwest winds 10 to 15 mph with gusts up to 25 mph. Chance of rain 80 percent.

THURSDAY NIGHT
Mostly cloudy with a chance of showers and thunderstorms in the evening, then partly cloudy after midnight. Lows in the lower 60s. Chance of rain 40 percent.

FRIDAY
Partly cloudy. Highs in the upper 70s.

FRIDAY NIGHT
Partly cloudy. A chance of showers and thunderstorms after midnight. Lows in the mid 60s. Chance of rain 40 percent.

SATURDAY
Partly cloudy in the morning, then becoming mostly cloudy. A chance of showers and thunderstorms. Highs in the lower 80s. Chance of rain 50 percent.

SATURDAY NIGHT
Mostly cloudy with a chance of showers and thunderstorms. Lows in the upper 60s. Chance of rain 50 percent.

SUNDAY
Mostly cloudy in the morning, then becoming partly cloudy. A chance of showers and thunderstorms. Highs in the mid 80s. Chance of rain 50 percent.

SUNDAY NIGHT
Mostly cloudy in the evening, then becoming partly cloudy. A chance of showers and thunderstorms. Lows around 70. Chance of rain 50 percent.

MONDAY
Partly cloudy with a chance of showers and thunderstorms. Highs in the lower 80s. Chance of rain 50 percent.

Ag Weather Center, Department of Biosystems & Agricultural Engineering, University of Kentucky